Погода в точке

    39°02′52″N   77°28′22″W   America/New_York
темп.,
°C
ветер,
м/с
пор.,
м/с
влажн.,
%
обл.,
%
осадки,
мм/ч
давл.,
гПа
погр.,
м
6 мая, чт
чт623:00+11ссз712641 0.0 10161070
02:00+9сз611605 0.0 10171018
05:00+7сз411595 0.0 1018495
08:00+8сз59640 0.0 1019507
11:00+12ссз45525 0.0 10191373
14:00+15ссз3445100 0.0 10171496
17:00+15с2347100 0.0 10151332
20:00+12в1162100 0.0 101511
7 мая, пт
пт723:00+9ююз11673 0.0 101510
02:00+8ю11775 0.0 101312
05:00+6ююз228789 0.0 101234
08:00+10ююв2371100 0.0 1011213
11:00+13ююв2464100 0.2 1010742
14:00+10юз2492100 3.9 1009251
17:00+9сз51094100 3.3 1009682
20:00+8ссз3890100 3.6 1011443
8 мая, сб
сб823:00+6зсз2690100 0.0 1012155
02:00+4зсз36910 0.0 1011119
05:00+3з359049 0.0 1011100
08:00+7сз377797 0.0 1013326
11:00+8зсз577589 0.2 10141054
14:00+11зсз6859100 0.6 10151665
17:00+14сз69515 0.0 10151913
20:00+10з411660 0.0 1017320
9 мая, вс
вс923:00+8зсз4136530 0.0 1019416
02:00+5зсз3974100 0.0 1019178
05:00+5з227688 0.0 102040
08:00+8з126672 0.0 1021167
11:00+13ю3450100 0.0 10191064
14:00+8ююз3693100 1.3 1018317
17:00+8ююв2696100 1.4 1016354
20:00+8в2597100 2.0 1014226
10 мая, пн
пн1023:00+8в2598100 0.0 1013235
02:00+7юв1299100 0.1 101045
05:00+9ю3997100 0.0 1007226
08:00+13ююз41394100 0.4 1007319
11:00+20ююз61079100 0.4 1006602
14:00+22юз51076100 1.1 10051101
17:00+17зсз7159199 2.6 1006769
20:00+12сз7127296 2.6 10131140